x

9444090 - Port Angeles, Wa (ptaw1) Weather Station

11:36 - Thu 30th Jun 2016 All times are PDT. -7 hours from GMT.

  • Wind
    9mph, 16mph gusts
  • Sea Temp 53°f
  • Ar Temp 57°f
  • Sea Pressure 1020.6mb
  • 9444090 - Port Angeles, Wa
  • 9444090 - Port Angeles, Wa

More Historic Weather Station data

Upgrade to MSW Pro to gain access to the past 30 days of data for over 8000 Wavebouys and Weather Stations around the globe.

Join Pro

Comparision Forecast

View Surf forecast
   
Qui 06/30 11:36 9 16 mph 1020.6mb 53f 57f
11:30 11 15 mph 1020.7mb 53f 57f
11:24 11 17 mph 1020.7mb 53f 57f
11:18 13 18 mph 1020.7mb 53f 57f
11:12 9 14 mph 1020.7mb 53f 57f
11:06 7 11 mph 1020.8mb 53f 57f
11:00 10 18 mph 1020.8mb 53f 57f
10:36 7 14 mph 1020.9mb 53f 56f
10:30 7 14 mph 1021mb 53f 56f
10:24 9 14 mph 1021mb 53f 56f
10:18 10 14 mph 1021.1mb 53f 56f
10:12 8 14 mph 1021.1mb 53f 56f
10:06 10 14 mph 1021.1mb 53f 56f
10:00 9 21 mph 1021.1mb 53f 56f
9:36 11 14 mph 1021.1mb 53f 57f
9:30 10 16 mph 1021.1mb 53f 57f
9:24 11 17 mph 1021.1mb 53f 57f
9:18 10 15 mph 1021.1mb 53f 57f
9:12 10 14 mph 1021mb 53f 57f
9:06 10 14 mph 1021mb 53f 58f
9:00 9 13 mph 1020.9mb 53f 58f
8:36 8 13 mph 1021mb 53f 58f
8:30 10 16 mph 1021mb 53f 58f
8:24 14 17 mph 1021.1mb 53f 58f
8:18 10 15 mph 1021.1mb 53f 58f
8:12 14 17 mph 1021.1mb 53f 58f
8:06 16 18 mph 1021.1mb 53f 58f
8:00 17 21 mph 1021.1mb 53f 58f
7:36 16 21 mph - 53f 58f
7:30 18 23 mph - 53f 58f
7:24 17 24 mph - 53f 59f
7:18 18 22 mph - 53f 59f
7:12 18 23 mph - 53f 58f
7:06 18 24 mph - 53f 58f
7:00 21 25 mph - 53f 59f
6:36 21 24 mph - 53f 58f
6:30 20 24 mph - 53f 59f
6:24 20 24 mph - 53f 58f
6:18 18 24 mph - 53f 58f
6:12 20 25 mph - 53f 58f
6:06 18 24 mph - 53f 58f
6:00 21 25 mph - 53f 58f
5:30  -  mph - 53f 57f
5:24  -  mph - 53f 57f
5:18  -  mph - 53f 57f
5:12  -  mph - 53f 58f
5:06  -  mph - 53f 58f
5:00  -  mph - 53f 58f
4:36  -  mph 1022.4mb 53f 58f
3:36  -  mph 1022.8mb 53f 58f
3:30  -  mph 1022.9mb 53f 57f
3:24  -  mph 1022.9mb 53f 57f
3:18  -  mph 1023mb 53f 57f
3:12  -  mph 1023mb 53f 57f
3:06  -  mph 1022.9mb 53f 57f
3:00  -  mph 1023mb 53f 58f
2:36 22 28 mph 1023mb 53f 58f
2:30 22 28 mph 1023.2mb 52f 58f
2:24 21 26 mph 1023.2mb 52f 58f
2:18 22 26 mph 1023.3mb 52f 58f
2:12 23 26 mph 1023.4mb 52f 58f
2:06 22 25 mph 1023.4mb 52f 57f
2:00 21 29 mph 1023.5mb 52f 57f
1:36 21 25 mph 1023.5mb 52f 57f
1:30 21 26 mph 1023.6mb 52f 57f
1:24 21 24 mph 1023.6mb 52f 57f
1:18 18 24 mph 1023.7mb 52f 57f
1:12 18 23 mph 1023.8mb 52f 56f
1:06 16 21 mph 1023.8mb 52f 56f
1:00 16 21 mph 1023.9mb 52f 56f
12:36 15 20 mph 1024mb 52f 57f
12:30 16 18 mph 1024mb 52f 57f
12:24 15 18 mph 1024mb 52f 57f
12:18 15 18 mph 1024mb 52f 57f
12:12 15 18 mph 1024mb 52f 57f
12:06 15 17 mph 1024mb 52f 56f
12:00 16 20 mph 1024mb 53f 56f
11:36 13 17 mph 1024mb 53f 56f
11:30 14 18 mph 1024mb 53f 56f
11:24 14 17 mph 1023.9mb 52f 56f
11:18 14 16 mph 1023.8mb 52f 56f
11:12 14 18 mph 1023.8mb 52f 56f
11:06 14 18 mph 1023.8mb 52f 56f
11:00 16 22 mph 1023.7mb 52f 56f
10:36 18 22 mph 1023.7mb 52f 57f
10:30 16 21 mph 1023.8mb 52f 57f
10:24 17 22 mph 1023.8mb 52f 56f
10:18 17 23 mph 1023.8mb 52f 56f
10:12 17 24 mph 1023.9mb 52f 56f
10:06 18 24 mph 1023.9mb 52f 56f
10:00 20 25 mph 1023.8mb 52f 56f
9:36 18 24 mph 1023.9mb 52f 55f
9:30 18 24 mph 1023.8mb 52f 55f
9:24 18 22 mph 1023.8mb 52f 55f
9:18 16 22 mph 1023.7mb 52f 55f
9:12 17 25 mph 1023.6mb 52f 55f
9:06 20 24 mph 1023.6mb 52f 55f
9:00 18 25 mph 1023.6mb 52f 55f
8:24  -  mph 1023.6mb 52f 57f
8:18  -  mph 1023.6mb 52f 57f
8:12  -  mph 1023.6mb 52f 57f
8:06  -  mph 1023.5mb 52f 57f
8:00  -  mph 1023.4mb 52f 57f
7:36 8 13 mph 1023.3mb 52f 58f
7:30 6 10 mph 1023.3mb 52f 58f
7:24 6 11 mph 1023.3mb 52f 58f
7:18 6 9 mph 1023.4mb 52f 58f
7:12 5 8 mph 1023.5mb 52f 58f
7:06 7 11 mph 1023.4mb 52f 58f
7:00 5 10 mph 1023.2mb 52f 57f
6:36 5 8 mph 1023.2mb 52f 57f
6:30 6 8 mph 1023.1mb 52f 56f
6:24 6 13 mph 1023.1mb 52f 56f
6:18 6 14 mph 1023.1mb 52f 56f
6:12 9 16 mph 1023.1mb 52f 56f
6:06 10 16 mph 1023mb 52f 56f
6:00 11 18 mph 1023mb 52f 56f
5:36 6 13 mph 1023mb 52f 56f
5:30 6 11 mph 1023mb 52f 56f
5:24 7 14 mph 1023mb 52f 55f
5:18 10 16 mph 1023mb 52f 56f
5:12 5 9 mph 1023mb 52f 55f
5:06 3 8 mph 1023.1mb 52f 56f
5:00 6 11 mph 1023mb 52f 56f
4:36 13 18 mph 1022.6mb 52f 56f
4:30 13 21 mph 1022.5mb 52f 56f
4:24 14 18 mph 1022.4mb 52f 56f
4:18 13 21 mph 1022.4mb 52f 56f
4:12 14 18 mph 1022.5mb 52f 56f
4:06 8 15 mph 1022.4mb 52f 56f
4:00 8 21 mph 1022.3mb 52f 56f
3:36 10 15 mph 1022.3mb 52f 56f
3:30 10 15 mph 1022.3mb 52f 56f
3:24 8 13 mph 1022.3mb 52f 56f
3:18 8 13 mph 1022.3mb 52f 56f
3:12 9 14 mph 1022.3mb 52f 56f
3:06 9 14 mph 1022.3mb 52f 56f
3:00 9 13 mph 1022.3mb 52f 56f
2:36 10 14 mph 1022.4mb 52f 56f
2:30 9 16 mph 1022.4mb 52f 56f
2:24 10 16 mph 1022.4mb 52f 56f
2:18 10 15 mph 1022.4mb 52f 56f
2:12 11 18 mph 1022.3mb 52f 56f
2:06 11 21 mph 1022.2mb 52f 56f
2:00 11 18 mph 1022.2mb 52f 56f
1:36 10 17 mph 1022.1mb 52f 56f
1:30 9 16 mph 1022.1mb 52f 56f
1:24 9 17 mph 1022.1mb 52f 56f
1:18 8 15 mph 1022.1mb 52f 56f
1:12 8 11 mph 1022.2mb 52f 56f
1:06 7 16 mph 1022.2mb 52f 56f
1:00 7 15 mph 1022.2mb 52f 56f
12:54 9 15 mph 1022.1mb 52f 56f
12:48 6 14 mph 1022.1mb 52f 56f
12:36 6 16 mph 1021.9mb 52f 56f
12:30 8 14 mph 1021.9mb 52f 56f
12:24 6 15 mph 1021.9mb 52f 56f
12:18 14 21 mph 1021.9mb 52f 56f
12:12 14 22 mph 1021.9mb 52f 56f
12:06 14 22 mph 1021.8mb 52f 56f
12:00 15 23 mph 1021.9mb 52f 56f
Qua 06/29 11:54 14 21 mph 1021.9mb 51f 56f
11:48 14 20 mph 1021.8mb 51f 56f
11:36 11 23 mph 1021.9mb 52f 56f
11:30 13 22 mph 1021.9mb 52f 56f
11:24 9 15 mph 1021.9mb 52f 56f
11:18 10 22 mph 1021.9mb 52f 56f
11:12 14 21 mph 1021.8mb 52f 56f
11:06 11 17 mph 1021.9mb 52f 56f
11:00 13 20 mph 1021.9mb 52f 56f
10:54 14 25 mph 1021.8mb 52f 57f
10:48 14 21 mph 1021.8mb 52f 57f
10:36 16 25 mph 1021.8mb 52f 57f
10:30 13 18 mph 1021.8mb 52f 57f
10:24 11 18 mph 1021.8mb 52f 57f
10:18 13 21 mph 1021.9mb 52f 57f
10:12 13 26 mph 1021.8mb 52f 57f
10:06 17 24 mph 1021.8mb 52f 56f
10:00 17 23 mph 1021.7mb 53f 56f
9:54 20 26 mph 1021.7mb 53f 56f
9:48 17 23 mph 1021.6mb 53f 56f
9:36 23 29 mph 1021.5mb 53f 56f
9:30 23 31 mph 1021.5mb 53f 56f
9:24 20 29 mph 1021.5mb 53f 57f
9:18 17 23 mph 1021.5mb 53f 57f
9:12 18 23 mph 1021.5mb 53f 57f
9:06 16 24 mph 1021.5mb 53f 57f
9:00 20 24 mph 1021.5mb 53f 57f
8:54 18 23 mph 1021.6mb 53f 57f
8:48 17 24 mph 1021.6mb 53f 57f
8:36 24 32 mph 1021.5mb 53f 57f
8:30 18 26 mph 1021.5mb 53f 57f
8:24 21 30 mph 1021.5mb 53f 57f
8:18 17 25 mph 1021.6mb 53f 57f
8:12 18 23 mph 1021.6mb 53f 57f
8:06 18 28 mph 1021.6mb 53f 57f
8:00 18 26 mph 1021.6mb 53f 57f
7:54 18 23 mph 1021.5mb 53f 57f
7:48 17 22 mph 1021.4mb 53f 57f
7:36 16 22 mph 1021.4mb 53f 58f
7:30 23 30 mph 1021.1mb 53f 57f
7:24 21 29 mph 1021.2mb 53f 58f
7:18 22 29 mph 1021.2mb 53f 58f
7:12 22 30 mph 1021.1mb 53f 57f
7:06 24 31 mph 1021mb 53f 57f
7:00 22 31 mph 1021mb 53f 57f
6:54 23 30 mph 1020.9mb 53f 57f
6:48 24 30 mph 1020.9mb 53f 57f
6:36 25 33 mph - 53f 57f
6:30 24 33 mph - 53f 57f
6:24 25 32 mph - 53f 57f
6:18 25 31 mph - 53f 57f
6:12 29 37 mph - 53f 57f
6:06 25 34 mph - 53f 57f
6:00 24 33 mph - 53f 57f
5:54 25 32 mph - 53f 57f
5:48 28 36 mph - 53f 57f
5:36  -  mph 1020.9mb 53f 57f
5:30  -  mph 1021mb 53f 56f
5:24  -  mph 1021mb 53f 56f
5:18  -  mph 1020.9mb 53f 56f
5:12  -  mph 1021mb 53f 56f
5:06  -  mph 1021mb 53f 56f
5:00  -  mph 1021mb 53f 57f
4:54  -  mph 1021.1mb 53f 57f
4:48  -  mph 1021.2mb 53f 57f
4:36  -  mph 1021.3mb 53f 56f
4:30  -  mph 1021.3mb 53f 56f
4:24  -  mph 1021.4mb 53f 56f
4:18  -  mph 1021.4mb 53f 56f
4:12  -  mph 1021.4mb 53f 56f
4:06  -  mph 1021.5mb 53f 56f
4:00  -  mph 1021.4mb 53f 56f
3:54  -  mph 1021.6mb 53f 56f
3:48  -  mph 1021.6mb 53f 56f
3:36  -  mph 1021.8mb 53f 56f
3:30  -  mph 1021.7mb 53f 56f
3:24  -  mph 1021.7mb 53f 56f
3:18  -  mph 1021.7mb 53f 56f
3:12  -  mph 1021.8mb 53f 56f
3:06  -  mph 1021.8mb 53f 56f
3:00  -  mph 1021.8mb 53f 56f
2:54  -  mph 1021.8mb 53f 56f
2:48  -  mph 1021.8mb 53f 56f
2:36 21 26 mph 1021.8mb 53f 56f
2:30 22 28 mph 1021.9mb 53f 56f
2:24 21 26 mph 1021.9mb 53f 56f
2:18 23 26 mph 1021.9mb 53f 56f
2:12 21 25 mph 1021.9mb 53f 56f
2:06 22 25 mph 1022mb 53f 56f
2:00 22 26 mph 1022mb 53f 56f
1:54 21 25 mph 1022.1mb 53f 56f
1:48 20 26 mph 1022.1mb 53f 56f
1:36 22 26 mph 1022.2mb 53f 56f
1:30 21 26 mph 1022.2mb 53f 56f
1:24 21 25 mph 1022.3mb 53f 56f
1:18 21 26 mph 1022.3mb 53f 56f
1:12 21 25 mph 1022.4mb 53f 56f
1:06 21 26 mph 1022.4mb 53f 56f
1:00 18 23 mph 1022.5mb 53f 55f
12:54 22 25 mph 1022.5mb 53f 56f
12:48 18 24 mph 1022.6mb 53f 55f
12:36 18 25 mph 1022.7mb 53f 56f
12:30 20 25 mph 1022.7mb 53f 56f
12:24 21 25 mph 1022.8mb 53f 55f
12:18 21 26 mph 1022.7mb 53f 55f
12:12 20 25 mph 1022.7mb 53f 55f
12:06 20 24 mph 1022.7mb 53f 55f
12:00 20 25 mph 1022.7mb 53f 55f
11:54 20 26 mph 1022.8mb 53f 55f
11:48 18 24 mph 1022.8mb 53f 55f
11:36 17 24 mph 1022.9mb 53f 55f
11:30 17 23 mph 1022.9mb 53f 55f
11:24 16 22 mph 1023mb 53f 55f
11:18 16 22 mph 1023mb 53f 55f
11:12 16 20 mph 1023mb 53f 55f
11:06 16 21 mph 1023mb 53f 55f
11:00 16 20 mph 1023mb 53f 55f
10:54 14 18 mph 1023mb 53f 55f
10:48 14 18 mph 1023mb 53f 55f
10:36 14 17 mph 1023mb 53f 55f
10:30 15 17 mph 1023mb 52f 55f
10:24 14 16 mph 1023mb 52f 55f
10:18 14 17 mph 1023mb 52f 55f
10:12 14 17 mph 1023mb 52f 55f
10:06 15 18 mph 1022.9mb 52f 55f
10:00 14 17 mph 1022.9mb 52f 55f
9:54 15 17 mph 1023mb 52f 55f
9:48 14 17 mph 1023mb 52f 55f
9:36 14 17 mph 1023mb 52f 55f
9:30 14 17 mph 1023mb 52f 55f
9:24 14 16 mph 1022.9mb 52f 55f
9:18 15 17 mph 1022.9mb 52f 55f
9:12 13 16 mph 1022.9mb 52f 55f
9:06 14 16 mph 1022.9mb 52f 55f
9:00 14 16 mph 1022.9mb 52f 55f
8:54 13 15 mph 1022.9mb 52f 55f
8:48 13 15 mph 1022.8mb 52f 55f
8:36 13 15 mph 1022.8mb 52f 55f
8:30 13 15 mph 1022.8mb 52f 55f
8:24 10 13 mph 1022.8mb 52f 55f
8:18 10 14 mph 1022.8mb 52f 55f
8:12 10 14 mph 1022.8mb 52f 55f
8:06 8 11 mph 1022.7mb 52f 55f
8:00 7 13 mph 1022.7mb 52f 56f
7:54 9 13 mph 1022.7mb 52f 56f
7:48 7 13 mph 1022.7mb 52f 56f
7:36 6 8 mph 1022.7mb 52f 56f
7:30 6 14 mph 1022.7mb 52f 56f
7:24 8 11 mph 1022.7mb 52f 56f
7:18 8 10 mph 1022.7mb 52f 56f
7:12 6 10 mph 1022.7mb 52f 56f
7:06 6 9 mph 1022.7mb 52f 56f
7:00 6 8 mph 1022.6mb 52f 56f
6:54 5 9 mph 1022.6mb 52f 56f
6:48 6 9 mph 1022.6mb 52f 56f
6:36 7 10 mph 1022.5mb 52f 55f
6:30 6 10 mph 1022.4mb 52f 55f
6:24 5 9 mph 1022.4mb 52f 55f
6:18 6 11 mph 1022.4mb 52f 55f
6:12 6 9 mph 1022.4mb 52f 55f
6:06 5 10 mph 1022.4mb 52f 55f
6:00 8 11 mph 1022.4mb 52f 55f
5:54 6 9 mph 1022.4mb 52f 55f
5:48 6 8 mph 1022.4mb 52f 55f
5:36 3 8 mph 1022.3mb 52f 55f
5:30 6 9 mph 1022.2mb 53f 55f
5:24 6 11 mph 1022.1mb 53f 55f
5:18 6 9 mph 1022.1mb 52f 55f
5:12 6 9 mph 1022mb 52f 55f
5:06 7 10 mph 1022mb 53f 55f
5:00 6 11 mph 1022mb 53f 55f
4:36 6 9 mph 1021.8mb 53f 55f
4:30 6 10 mph 1021.7mb 53f 55f
4:24 5 9 mph 1021.7mb 53f 55f
4:18 5 8 mph 1021.7mb 53f 55f
4:12 6 9 mph 1021.7mb 53f 55f
4:06 3 7 mph 1021.7mb 53f 55f
4:00 6 8 mph 1021.7mb 53f 55f
3:54 5 9 mph 1021.7mb 53f 55f
3:48 5 7 mph 1021.7mb 53f 55f
3:36 6 10 mph 1021.7mb 53f 55f
3:30 7 11 mph 1021.7mb 53f 55f
3:24 7 11 mph 1021.7mb 53f 55f
3:18 6 14 mph 1021.7mb 53f 55f
3:12 8 11 mph 1021.7mb 53f 55f
3:06 9 14 mph 1021.7mb 53f 55f
3:00 8 14 mph 1021.6mb 53f 55f
2:54 9 14 mph 1021.6mb 53f 55f
2:48 9 15 mph 1021.6mb 53f 55f
2:36 6 13 mph 1021.6mb 53f 55f
2:30 8 13 mph 1021.5mb 53f 55f
2:24 8 11 mph 1021.5mb 53f 55f
2:18 6 10 mph 1021.5mb 53f 55f
2:12 7 10 mph 1021.4mb 53f 55f
2:06 6 10 mph 1021.5mb 53f 55f
2:00 7 10 mph 1021.5mb 53f 56f
1:54 7 9 mph 1021.4mb 53f 56f
1:48 6 9 mph 1021.4mb 53f 56f
1:36 7 10 mph 1021.4mb 53f 56f
1:30 6 10 mph 1021.4mb 53f 56f
1:24 10 15 mph 1021.4mb 53f 56f
1:18 9 15 mph 1021.4mb 53f 56f
1:12 10 17 mph 1021.3mb 53f 56f
1:06 14 16 mph 1021.3mb 53f 56f
1:00 15 21 mph 1021.2mb 53f 56f
12:54 13 18 mph 1021.2mb 53f 56f
12:48 15 18 mph 1021.2mb 53f 56f
12:36 10 16 mph 1021.2mb 53f 56f
12:30 14 17 mph 1021.2mb 53f 56f
12:24 14 17 mph 1021.2mb 53f 56f
12:18 13 17 mph 1021.2mb 53f 56f
12:12 13 18 mph 1021.2mb 53f 56f
12:06 11 16 mph 1021.1mb 53f 56f
12:00 11 14 mph 1021.1mb 53f 56f
Ter 06/28 11:54 13 16 mph 1021.1mb 53f 56f
11:48 11 14 mph 1021.1mb 53f 56f
11:36 11 17 mph 1021mb 53f 56f
11:30 13 17 mph 1021mb 53f 56f
11:24 13 17 mph 1020.9mb 53f 56f
11:18 15 18 mph 1021mb 53f 56f
11:12 15 23 mph 1021mb 53f 56f
11:06 14 21 mph 1021mb 53f 56f
11:00 14 20 mph 1021mb 53f 56f
10:54 13 20 mph 1021.1mb 53f 56f
10:48 14 17 mph 1021.1mb 53f 56f
10:36 13 17 mph 1021mb 53f 56f
10:30 14 17 mph 1021mb 53f 56f
10:24 14 20 mph 1021mb 53f 56f
10:18 13 16 mph 1020.9mb 53f 56f
10:12 14 21 mph 1020.9mb 53f 56f
10:06 13 17 mph 1020.9mb 53f 56f
10:00 13 16 mph 1021mb 53f 55f
9:54 15 20 mph 1020.9mb 53f 55f
9:48 16 21 mph 1020.8mb 53f 55f
9:36 16 21 mph 1020.7mb 53f 55f
9:30 16 20 mph 1020.6mb 53f 55f
9:24 17 21 mph 1020.5mb 53f 55f
9:18 15 20 mph 1020.5mb 53f 55f
9:12 14 21 mph 1020.4mb 53f 55f
9:06 16 21 mph 1020.4mb 53f 55f
9:00 15 20 mph 1020.4mb 53f 55f
8:54 16 20 mph 1020.3mb 53f 55f
8:48 17 20 mph 1020.3mb 53f 55f
8:36 15 21 mph 1020.3mb 53f 55f
8:30 18 22 mph 1020.3mb 53f 56f
8:24 16 20 mph 1020.3mb 53f 56f
8:18 16 21 mph 1020.3mb 53f 56f
8:12 15 18 mph 1020.2mb 53f 57f
8:06 16 18 mph 1020.1mb 53f 57f
8:00 16 20 mph 1020.1mb 53f 57f
7:54 16 20 mph 1020.1mb 53f 57f
7:48 15 18 mph 1020.1mb 53f 57f
7:36 16 18 mph 1020.1mb 53f 58f
7:30 15 22 mph 1020.1mb 53f 58f
7:24 16 20 mph 1020.1mb 53f 57f
7:18 17 21 mph 1020.1mb 53f 57f
7:12 17 20 mph 1020.1mb 53f 57f
7:06 16 20 mph 1020.1mb 53f 57f
7:00 17 23 mph 1020.1mb 53f 56f
6:54 18 22 mph 1020mb 53f 57f
6:48 18 23 mph 1020mb 53f 56f
6:36  -  mph 1020mb 53f 57f
6:30  -  mph 1020mb 53f 57f
6:24  -  mph 1020mb 53f 58f
6:18  -  mph 1020.1mb 53f 57f
6:12  -  mph 1020.1mb 53f 58f
6:06  -  mph 1020.1mb 53f 58f
6:00  -  mph 1020.2mb 53f 57f
5:54  -  mph 1020.2mb 53f 57f
5:48  -  mph 1020.2mb 53f 58f
5:36 18 21 mph 1020.3mb 53f 58f
5:30 18 21 mph 1020.4mb 53f 58f
5:24 17 21 mph 1020.4mb 53f 58f
5:18 18 21 mph 1020.4mb 53f 58f
5:12 16 21 mph 1020.5mb 53f 58f
5:06 17 20 mph 1020.6mb 53f 58f
5:00 17 20 mph 1020.7mb 53f 58f
4:54 15 21 mph 1020.7mb 53f 58f
4:48 16 20 mph 1020.8mb 53f 58f
4:36  -  mph 1021mb 53f 58f
4:30  -  mph 1021mb 53f 57f
4:24  -  mph 1021.1mb 53f 58f
4:18  -  mph 1021.2mb 53f 58f
4:12  -  mph 1021.1mb 53f 57f
4:06  -  mph 1021.2mb 53f 57f
4:00  -  mph 1021.3mb 53f 57f
3:54  -  mph 1021.3mb 53f 57f
3:48  -  mph 1021.3mb 53f 57f
3:36  -  mph 1021.4mb - 57f
3:30  -  mph 1021.4mb - 57f
3:24  -  mph 1021.5mb - 57f
3:18  -  mph 1021.6mb - 57f
3:12  -  mph 1021.6mb - 56f
3:06  -  mph 1021.7mb - 56f
3:00  -  mph 1021.7mb - 56f
2:54  -  mph 1021.8mb - 56f
2:48  -  mph 1021.7mb - 56f
2:36 20 24 mph 1021.8mb 52f 56f
2:30 21 23 mph 1021.8mb 52f 56f
2:24 20 24 mph 1021.9mb 52f 56f
2:18 20 23 mph 1021.9mb 52f 56f
2:12 18 23 mph 1022mb 52f 56f
2:06 17 22 mph 1021.9mb 52f 56f
2:00 16 22 mph 1022mb 52f 56f
1:54 16 21 mph 1022mb 52f 56f
1:48 15 18 mph 1022mb 52f 56f
1:36 17 21 mph 1022.1mb 52f 55f
1:30 16 21 mph 1022.2mb 52f 55f
1:24 14 21 mph 1022.3mb 52f 55f
1:18 17 22 mph 1022.3mb 52f 55f
1:12 17 22 mph 1022.4mb 52f 55f
1:06 17 21 mph 1022.4mb 52f 55f
1:00 18 22 mph 1022.4mb 52f 55f
12:54 18 22 mph 1022.4mb 52f 55f
12:48 16 21 mph 1022.4mb 52f 55f
12:36 17 22 mph 1022.5mb 52f 55f
12:30 18 22 mph 1022.5mb 52f 55f
12:24 17 21 mph 1022.5mb 52f 55f
12:18 17 22 mph 1022.5mb 52f 55f
12:12 16 21 mph 1022.6mb 52f 55f
12:06 16 21 mph 1022.6mb 52f 55f
12:00 16 21 mph 1022.7mb 52f 55f
11:54 17 21 mph 1022.7mb 52f 55f
11:48 15 20 mph 1022.8mb 52f 55f
11:36 16 21 mph 1022.8mb 52f 54f
11:30 17 21 mph 1022.9mb 52f 54f
11:24 16 20 mph 1022.9mb 52f 54f
11:18 18 22 mph 1022.9mb 52f 54f
11:12 16 21 mph 1022.9mb 53f 54f
11:06 15 20 mph 1022.9mb 53f 55f
11:00 16 21 mph 1022.9mb 53f 54f
10:54 17 20 mph 1022.9mb 53f 54f
10:48 16 21 mph 1022.9mb 53f 54f
10:36 16 20 mph 1022.9mb 53f 54f
10:30 17 21 mph 1023mb 53f 55f
10:24 15 20 mph 1023mb 52f 54f
10:18 14 18 mph 1023mb 52f 55f
10:12 14 18 mph 1023.1mb 52f 55f
10:06 15 18 mph 1023.1mb 52f 55f
10:00 15 20 mph 1023.1mb 52f 54f
9:54 15 18 mph 1023.2mb 52f 55f
9:48 15 18 mph 1023.2mb 52f 55f
9:36 14 17 mph 1023.3mb 52f 55f
9:30 14 17 mph 1023.3mb 52f 55f
9:24 14 17 mph 1023.3mb 52f 55f
9:18 13 17 mph 1023.3mb 52f 55f
9:12 14 17 mph 1023.2mb 52f 55f
9:06 15 18 mph 1023.3mb 52f 55f
9:00 15 18 mph 1023.3mb 52f 55f
8:54 14 16 mph 1023.2mb 52f 55f
8:48 13 15 mph 1023.2mb 52f 55f
8:36 14 15 mph 1023.2mb 52f 55f
8:30 13 14 mph 1023.2mb 52f 55f
8:24 13 16 mph 1023.2mb 52f 55f
8:18 13 14 mph 1023.2mb 52f 55f
8:12 11 14 mph 1023.2mb 52f 55f
8:06 13 14 mph 1023.2mb 52f 55f
8:00 10 13 mph 1023.2mb 52f 55f
7:54 10 13 mph 1023.2mb 52f 55f
7:48 9 14 mph 1023.2mb 52f 55f
7:36 7 13 mph 1023.1mb 52f 55f
7:30 7 9 mph 1023.1mb 52f 56f
7:24 7 10 mph 1023.1mb 52f 55f
7:18 7 14 mph 1023mb 52f 55f
7:12 10 14 mph 1023mb 52f 55f
7:06 8 11 mph 1023.1mb 52f 55f
7:00 6 10 mph 1023mb 52f 55f
6:54 8 10 mph 1023mb 52f 56f
6:48 7 11 mph 1023mb 52f 56f
6:36 6 9 mph 1023mb 52f 55f
6:30 7 9 mph 1023mb 52f 55f
6:24 6 8 mph 1022.9mb 52f 55f
6:18 6 10 mph 1022.8mb 52f 55f
6:12 6 8 mph 1022.8mb 52f 55f
6:06 5 8 mph 1022.7mb 52f 55f
6:00 7 10 mph 1022.7mb 52f 55f
5:54 6 11 mph 1022.6mb 52f 55f
5:48 5 7 mph 1022.6mb 52f 55f
5:36 5 11 mph 1022.5mb 52f 55f
5:30 9 14 mph 1022.5mb 52f 55f
5:24 9 13 mph 1022.5mb 53f 55f
5:18 8 13 mph 1022.4mb 53f 55f
5:12 8 13 mph 1022.4mb 53f 55f
5:06 8 11 mph 1022.4mb 53f 55f
5:00 7 11 mph 1022.4mb 53f 55f
4:54 6 10 mph 1022.4mb 53f 55f
4:48 7 13 mph 1022.4mb 53f 55f
4:36 9 13 mph 1022.3mb 53f 55f
4:30 7 10 mph 1022.3mb 53f 55f
4:24 8 13 mph 1022.2mb 53f 55f
4:18 5 10 mph 1022.2mb 53f 55f
4:12 7 14 mph 1022.3mb 53f 55f
4:06 6 10 mph 1022.2mb 53f 55f
4:00 5 10 mph 1022.2mb 53f 55f
3:54 6 9 mph 1022.1mb 53f 55f
3:48 7 10 mph 1022.1mb 53f 55f
3:36 6 10 mph 1022mb 53f 55f
3:30 7 10 mph 1021.9mb 53f 55f
3:24 8 13 mph 1021.9mb 53f 55f
3:18 8 10 mph 1021.9mb 52f 55f
3:12 6 8 mph 1021.8mb 52f 55f
3:06 6 10 mph 1021.9mb 52f 55f
3:00 9 13 mph 1021.8mb 52f 55f
2:54 8 13 mph 1021.7mb 52f 55f
2:48 9 13 mph 1021.7mb 52f 55f
2:36 7 11 mph 1021.7mb 52f 55f
2:30 8 13 mph 1021.7mb 52f 55f
2:24 7 14 mph 1021.6mb 51f 55f
2:18 10 15 mph 1021.7mb 52f 55f
2:12 13 16 mph 1021.6mb 52f 55f
2:06 11 18 mph 1021.6mb 52f 55f
2:00 11 16 mph 1021.6mb 52f 55f
1:54 13 17 mph 1021.6mb 52f 55f
1:48 13 18 mph 1021.6mb 52f 55f
1:36 14 17 mph 1021.6mb 52f 55f
1:30 14 18 mph 1021.6mb 52f 55f
1:24 11 16 mph 1021.6mb 52f 56f
1:18 11 16 mph 1021.6mb 52f 56f
1:12 11 17 mph 1021.6mb 52f 56f
1:06 9 13 mph 1021.6mb 52f 56f
1:00 9 14 mph 1021.7mb 52f 56f
12:54 11 17 mph 1021.7mb 52f 56f
12:48 11 16 mph 1021.7mb 52f 56f
12:36 10 16 mph 1021.7mb 52f 56f
12:30 13 17 mph 1021.7mb 52f 56f
12:24 14 20 mph 1021.6mb 52f 56f
12:18 14 18 mph 1021.7mb 52f 56f
12:12 16 21 mph 1021.7mb 52f 56f
12:06 16 22 mph 1021.7mb 52f 56f
12:00 14 21 mph 1021.7mb 53f 56f
Seg 06/27 11:54 16 20 mph 1021.7mb 53f 56f
11:48 14 18 mph 1021.7mb 53f 56f
11:36 14 20 mph 1021.7mb 53f 56f
11:30 14 18 mph 1021.7mb 53f 56f
11:24 13 18 mph 1021.7mb 53f 56f
11:18 13 18 mph 1021.7mb 52f 56f
11:12 11 16 mph 1021.6mb 52f 56f
11:06 15 20 mph 1021.6mb 52f 56f
11:00 15 20 mph 1021.6mb 52f 56f
10:54 14 17 mph 1021.7mb 52f 56f
10:48 14 20 mph 1021.7mb 52f 56f
10:36 13 18 mph 1021.7mb 52f 56f
10:30 11 16 mph 1021.7mb 52f 56f
10:24 13 17 mph 1021.7mb 52f 56f
10:18 10 16 mph 1021.7mb 52f 56f
10:12 13 20 mph 1021.7mb 52f 56f
10:06 13 16 mph 1021.6mb 52f 56f
10:00 13 16 mph 1021.5mb 52f 56f
9:54 10 17 mph 1021.5mb 53f 56f
9:48 14 18 mph 1021.4mb 53f 56f
9:36 13 18 mph 1021.3mb 53f 56f
9:30 14 17 mph 1021.2mb 53f 55f
9:24 14 20 mph 1021.2mb 53f 56f
9:18 16 20 mph 1021.1mb 53f 56f
9:12 16 20 mph 1021.1mb 53f 56f
9:06 15 17 mph 1021mb 53f 56f
9:00 15 20 mph 1020.9mb 53f 55f
8:54 15 20 mph 1020.8mb 53f 56f
8:48 17 21 mph 1020.7mb 53f 56f
8:36 16 20 mph 1020.7mb 53f 56f
8:30 16 21 mph 1020.7mb 53f 56f
8:24 15 20 mph 1020.8mb 53f 56f
8:18 18 22 mph 1020.7mb 53f 56f
8:12 16 22 mph 1020.8mb 53f 56f
8:06 18 23 mph 1020.7mb 53f 56f
8:00 18 23 mph 1020.6mb 53f 57f
7:54 15 22 mph 1020.6mb 53f 57f
7:48 17 23 mph 1020.5mb 53f 57f
7:36 20 24 mph 1020.4mb 53f 58f
7:30 20 25 mph 1020.4mb 53f 57f
7:24 20 23 mph 1020.4mb 53f 57f
7:18 21 28 mph 1020.3mb 53f 58f
7:12 20 26 mph 1020.2mb 53f 58f
7:06 20 25 mph 1020.2mb 53f 58f
7:00 21 28 mph 1020.3mb 53f 58f
6:54 22 28 mph 1020.3mb 53f 58f
6:48 20 25 mph 1020.2mb 53f 57f
6:36 23 26 mph 1020.1mb 53f 58f
6:30 23 25 mph 1020mb 53f 58f
6:24 21 25 mph 1020mb 53f 59f
6:18 20 23 mph 1020mb 53f 59f
6:12 21 23 mph 1020.1mb 53f 58f
6:06 17 21 mph 1020.1mb 53f 59f
6:00 17 21 mph 1020.2mb 53f 60f
5:54 15 20 mph 1020.2mb 53f 59f
5:48 15 20 mph 1020.3mb 53f 59f
5:36 17 20 mph 1020.4mb 53f 59f
5:30 16 21 mph 1020.5mb 53f 60f
5:24 17 23 mph 1020.6mb 53f 59f
5:18 21 23 mph 1020.6mb 53f 60f
5:12 21 23 mph 1020.5mb 53f 59f
5:06 20 22 mph 1020.5mb 53f 59f
5:00 21 23 mph 1020.5mb 53f 58f
4:54 21 23 mph 1020.6mb 53f 58f
4:48 20 25 mph 1020.6mb 53f 58f
4:36  -  mph 1020.6mb 53f 59f
4:30  -  mph 1020.6mb 53f 58f
4:24  -  mph 1020.7mb 53f 59f
4:18  -  mph 1020.7mb 53f 60f
4:12  -  mph 1020.7mb 53f 60f
4:06  -  mph 1020.7mb 53f 60f
4:00  -  mph 1020.7mb 53f 60f
3:54  -  mph 1020.7mb 53f 60f
3:48  -  mph 1020.7mb 53f 60f
3:36  -  mph 1020.7mb 53f 58f
3:30  -  mph 1020.8mb 54f 58f
3:24  -  mph 1020.8mb 54f 59f
3:18  -  mph 1020.9mb 54f 60f
3:12  -  mph 1020.9mb 54f 61f
3:06  -  mph 1021mb 54f 60f
3:00  -  mph 1021mb 54f 58f
2:54  -  mph 1021mb 54f 58f
2:48  -  mph 1021mb 54f 58f
2:36 17 22 mph 1021mb 54f 58f
2:30 17 21 mph 1021.1mb 54f 58f
2:24 17 21 mph 1021.1mb 54f 58f
2:18 17 20 mph 1021.1mb 54f 57f
2:12 17 21 mph 1021.1mb 54f 57f
2:06 18 21 mph 1021.2mb 54f 57f
2:00 15 20 mph 1021.3mb 53f 57f
1:54 18 22 mph 1021.2mb 53f 57f
1:48 17 21 mph 1021.3mb 53f 57f
1:36 18 22 mph 1021.3mb 53f 56f
1:30 18 23 mph 1021.3mb 53f 56f
1:24 17 22 mph 1021.4mb 53f 57f
1:18 18 22 mph 1021.4mb 53f 56f
1:12 17 21 mph 1021.4mb 53f 56f
1:06 17 20 mph 1021.4mb 53f 57f
1:00 17 20 mph 1021.4mb 53f 57f
12:54 16 18 mph 1021.4mb 53f 57f
12:48 16 20 mph 1021.3mb 53f 56f
12:36 17 21 mph 1021.4mb 53f 57f
12:30 16 18 mph 1021.4mb 53f 57f
12:24 16 20 mph 1021.4mb 53f 57f
12:18 15 18 mph 1021.4mb 53f 56f
12:12 16 17 mph 1021.4mb 52f 56f
12:06 14 17 mph 1021.4mb 52f 56f
12:00 15 17 mph 1021.4mb 51f 56f
11:54 15 16 mph 1021.4mb 51f 56f
11:48 15 17 mph 1021.3mb 51f 56f
11:36 15 16 mph 1021.3mb 51f 56f
11:30 15 16 mph 1021.2mb 51f 56f
11:24 13 16 mph 1021.3mb 51f 56f
11:18 15 16 mph 1021.3mb 51f 56f
11:12 14 16 mph 1021.4mb 51f 56f
11:06 14 16 mph 1021.5mb 51f 55f
11:00 14 16 mph 1021.5mb 51f 55f
10:54 14 15 mph 1021.5mb 52f 56f
10:48 13 15 mph 1021.6mb 52f 55f
10:36 13 15 mph 1021.6mb 51f 55f
10:30 14 15 mph 1021.6mb 51f 55f
10:24 14 15 mph 1021.6mb 51f 55f
10:18 13 14 mph 1021.6mb 52f 55f
10:12 13 14 mph 1021.6mb 52f 55f
10:06 14 15 mph 1021.5mb 52f 55f
10:00 14 15 mph 1021.5mb 52f 55f
9:54 10 14 mph 1021.5mb 52f 55f
9:48 10 16 mph 1021.5mb 52f 55f
9:36 15 16 mph 1021.5mb 52f 54f
9:30 15 17 mph 1021.5mb 52f 55f
9:24 15 16 mph 1021.5mb 52f 54f
9:18 15 16 mph 1021.5mb 52f 54f
9:12 14 16 mph 1021.5mb 52f 54f
9:06 14 15 mph 1021.5mb 52f 54f
9:00 14
mph
1021.4mb 52f 54f
8:54 13 15 mph 1021.4mb 52f 54f
8:48 14 15 mph 1021.4mb 52f 54f
8:36 11 15 mph 1021.4mb 52f 55f
8:30 10 14 mph 1021.3mb 51f 54f
8:24 9 13 mph 1021.3mb 51f 54f
8:18 11 13 mph 1021.2mb 51f 54f
8:12 9 15 mph 1021.2mb 51f 54f
8:06 13 15 mph 1021.2mb 51f 55f